Location: Unspecified
(41.5516°N, 88.1098°W)
Time: 09:22:06
(UTC-05:00)

Okean 3 - Visible Passes

Search period start: 02 August 2015 00:00
Search period end: 12 August 2015 00:00
Orbit: 579 x 605 km, 82.5° (Epoch: 02 August)

Date Brightness Start Highest point End Pass type
(mag) Time Alt. Az. Time Alt. Az. Time Alt. Az.
02 Aug 6.4 21:18:42 10° NW 21:21:18 15° W 21:23:45 10° WSW visible
07 Aug 6.3 20:25:56 10° NW 20:29:16 22° W 20:32:30 10° SW visible
08 Aug 6.6 20:35:44 10° NW 20:38:10 14° W 20:40:24 10° WSW visible
